C/2017 S3 ( PanSTARRS )

Japanese version
Home page
Updated on October 7, 2017

---------------------------------------------------------------------

* Profile

Discovery Date September 23, 2017
Magnitude 21.5 mag
Discoverer Pan-STARRS 1 telescope (Haleakala)

* Orbital Elements

Epoch 2018 Aug. 30.0 TT = JDT 2458360.5
T 2018 Aug. 15.92626 TT                                 MPCW
q   0.2084140            (2000.0)            P               Q
z  -0.0003116      Peri.  255.90245     +0.21704073     -0.96409218
 +/-0.0001471      Node   171.08578     +0.20839304     +0.19891892
e   1.0000650      Incl.   99.03108     -0.95365909     -0.17594752
From 30 observations 2017 Aug. 17-Sept. 27, mean residual 0".4.

* Finding Charts

* Magnitudes Graph

        m1 = 10.0 + 5 log d + 10.0 log r

---------------------------------------------------------------------

The orbital elements are published on M.P.E.C. 2017-T14.
The charts are made with StellaNavigator Ver.10 (AstroArts).
The magnitudes graphs are made with Comet for Windows.

---------------------------------------------------------------------

Copyright(C) Seiichi Yoshida (comet@aerith.net). All rights reserved.